Year,Month,Day,Hour,Minute,Value (Times are PST for temperature in C)
2015,07,26,00,00,13.60
2015,07,26,00,01,13.60
2015,07,26,00,02,13.60
2015,07,26,00,03,13.60
2015,07,26,00,04,13.50
2015,07,26,00,05,13.50
2015,07,26,00,06,13.50
2015,07,26,00,07,13.50
2015,07,26,00,08,13.50
2015,07,26,00,09,13.50
2015,07,26,00,10,13.50
2015,07,26,00,11,13.50
2015,07,26,00,12,13.50
2015,07,26,00,13,13.40
2015,07,26,00,14,13.40
2015,07,26,00,15,13.40
2015,07,26,00,16,13.40
2015,07,26,00,17,13.40
2015,07,26,00,18,13.40
2015,07,26,00,19,13.40
2015,07,26,00,20,13.40
2015,07,26,00,21,13.40
2015,07,26,00,22,13.40
2015,07,26,00,23,13.40
2015,07,26,00,24,13.40
2015,07,26,00,25,13.40
2015,07,26,00,26,13.40
2015,07,26,00,27,13.40
2015,07,26,00,28,13.50
2015,07,26,00,29,13.40
2015,07,26,00,30,13.40
2015,07,26,00,31,13.40
2015,07,26,00,32,13.40
2015,07,26,00,33,13.40
2015,07,26,00,34,13.40
2015,07,26,00,35,13.40
2015,07,26,00,36,13.50
2015,07,26,00,37,13.50
2015,07,26,00,38,13.50
2015,07,26,00,39,13.50
2015,07,26,00,40,13.50
2015,07,26,00,41,13.50
2015,07,26,00,42,13.50
2015,07,26,00,43,13.50
2015,07,26,00,44,13.50
2015,07,26,00,45,13.50
2015,07,26,00,46,13.50
2015,07,26,00,47,13.50
2015,07,26,00,48,13.50
2015,07,26,00,49,13.50
2015,07,26,00,50,13.50
2015,07,26,00,51,13.40
2015,07,26,00,52,13.50
2015,07,26,00,53,13.50
2015,07,26,00,54,13.50
2015,07,26,00,55,13.40
2015,07,26,00,56,13.40
2015,07,26,00,57,13.40
2015,07,26,00,58,13.40
2015,07,26,00,59,13.40
2015,07,26,01,00,13.30
2015,07,26,01,01,13.30
2015,07,26,01,02,13.30
2015,07,26,01,03,13.30
2015,07,26,01,04,13.30
2015,07,26,01,05,13.30
2015,07,26,01,06,13.30
2015,07,26,01,07,13.30
2015,07,26,01,08,13.30
2015,07,26,01,09,13.30
2015,07,26,01,10,13.30
2015,07,26,01,11,13.30
2015,07,26,01,12,13.30
2015,07,26,01,13,13.30
2015,07,26,01,14,13.30
2015,07,26,01,15,13.30
2015,07,26,01,16,13.30
2015,07,26,01,17,13.30
2015,07,26,01,18,13.30
2015,07,26,01,19,13.30
2015,07,26,01,20,13.30
2015,07,26,01,21,13.30
2015,07,26,01,22,13.30
2015,07,26,01,23,13.30
2015,07,26,01,24,13.30
2015,07,26,01,25,13.30
2015,07,26,01,26,13.30
2015,07,26,01,27,13.30
2015,07,26,01,28,13.30
2015,07,26,01,29,13.30
2015,07,26,01,30,13.30
2015,07,26,01,31,13.30
2015,07,26,01,32,13.30
2015,07,26,01,33,13.30
2015,07,26,01,34,13.30
2015,07,26,01,35,13.30
2015,07,26,01,36,13.30
2015,07,26,01,37,13.30
2015,07,26,01,38,13.30
2015,07,26,01,39,13.30
2015,07,26,01,40,13.30
2015,07,26,01,41,13.30
2015,07,26,01,42,13.30
2015,07,26,01,43,13.30
2015,07,26,01,44,13.30
2015,07,26,01,45,13.30
2015,07,26,01,46,13.30
2015,07,26,01,47,13.30
2015,07,26,01,48,13.30
2015,07,26,01,49,13.30
2015,07,26,01,50,13.30
2015,07,26,01,51,13.30
2015,07,26,01,52,13.30
2015,07,26,01,53,13.30
2015,07,26,01,54,13.30
2015,07,26,01,55,13.30
2015,07,26,01,56,13.30
2015,07,26,01,57,13.30
2015,07,26,01,58,13.30
2015,07,26,01,59,13.30
2015,07,26,02,00,13.30
2015,07,26,02,01,13.30
2015,07,26,02,02,13.30
2015,07,26,02,03,13.30
2015,07,26,02,04,13.30
2015,07,26,02,05,13.30
2015,07,26,02,06,13.30
2015,07,26,02,07,13.30
2015,07,26,02,08,13.30
2015,07,26,02,09,13.30
2015,07,26,02,10,13.30
2015,07,26,02,11,13.30
2015,07,26,02,12,13.30
2015,07,26,02,13,13.30
2015,07,26,02,14,13.30
2015,07,26,02,15,13.30
2015,07,26,02,16,13.30
2015,07,26,02,17,13.30
2015,07,26,02,18,13.30
2015,07,26,02,19,13.30
2015,07,26,02,20,13.30
2015,07,26,02,21,13.30
2015,07,26,02,22,13.30
2015,07,26,02,23,13.30
2015,07,26,02,24,13.30
2015,07,26,02,25,13.30
2015,07,26,02,26,13.30
2015,07,26,02,27,13.30
2015,07,26,02,28,13.30
2015,07,26,02,29,13.30
2015,07,26,02,30,13.30
2015,07,26,02,31,13.30
2015,07,26,02,32,13.30
2015,07,26,02,33,13.30
2015,07,26,02,34,13.30
2015,07,26,02,35,13.30
2015,07,26,02,36,13.30
2015,07,26,02,37,13.30
2015,07,26,02,38,13.30
2015,07,26,02,39,13.30
2015,07,26,02,40,13.30
2015,07,26,02,41,13.30
2015,07,26,02,42,13.30
2015,07,26,02,43,13.30
2015,07,26,02,44,13.30
2015,07,26,02,45,13.30
2015,07,26,02,46,13.30
2015,07,26,02,47,13.30
2015,07,26,02,48,13.30
2015,07,26,02,49,13.30
2015,07,26,02,50,13.30
2015,07,26,02,51,13.30
2015,07,26,02,52,13.30
2015,07,26,02,53,13.30
2015,07,26,02,54,13.30
2015,07,26,02,55,13.30
2015,07,26,02,56,13.30
2015,07,26,02,57,13.30
2015,07,26,02,58,13.30
2015,07,26,02,59,13.30
2015,07,26,03,00,13.30
2015,07,26,03,01,13.30
2015,07,26,03,02,13.20
2015,07,26,03,03,13.20
2015,07,26,03,04,13.20
2015,07,26,03,05,13.20
2015,07,26,03,06,13.20
2015,07,26,03,07,13.20
2015,07,26,03,08,13.20
2015,07,26,03,09,13.20
2015,07,26,03,10,13.20
2015,07,26,03,11,13.10
2015,07,26,03,12,13.10
2015,07,26,03,13,13.10
2015,07,26,03,14,13.10
2015,07,26,03,15,13.10
2015,07,26,03,16,13.10
2015,07,26,03,17,13.10
2015,07,26,03,18,13.10
2015,07,26,03,19,13.00
2015,07,26,03,20,13.00
2015,07,26,03,21,13.00
2015,07,26,03,22,13.00
2015,07,26,03,23,13.00
2015,07,26,03,24,13.00
2015,07,26,03,25,13.00
2015,07,26,03,26,13.00
2015,07,26,03,27,13.00
2015,07,26,03,28,13.00
2015,07,26,03,29,12.90
2015,07,26,03,30,12.90
2015,07,26,03,31,12.90
2015,07,26,03,32,12.90
2015,07,26,03,33,12.90
2015,07,26,03,34,12.90
2015,07,26,03,35,12.90
2015,07,26,03,36,12.90
2015,07,26,03,37,12.90
2015,07,26,03,38,12.90
2015,07,26,03,39,12.90
2015,07,26,03,40,12.90
2015,07,26,03,41,12.90
2015,07,26,03,42,12.90
2015,07,26,03,43,12.90
2015,07,26,03,44,12.90
2015,07,26,03,45,12.90
2015,07,26,03,46,13.00
2015,07,26,03,47,13.00
2015,07,26,03,48,12.90
2015,07,26,03,49,12.90
2015,07,26,03,50,12.90
2015,07,26,03,51,12.90
2015,07,26,03,52,12.90
2015,07,26,03,53,12.90
2015,07,26,03,54,13.00
2015,07,26,03,55,13.00
2015,07,26,03,56,13.00
2015,07,26,03,57,13.00
2015,07,26,03,58,13.00
2015,07,26,03,59,12.90
2015,07,26,04,00,12.90
2015,07,26,04,01,12.90
2015,07,26,04,02,12.90
2015,07,26,04,03,12.90
2015,07,26,04,04,12.90
2015,07,26,04,05,12.90
2015,07,26,04,06,12.90
2015,07,26,04,07,13.00
2015,07,26,04,08,13.00
2015,07,26,04,09,13.00
2015,07,26,04,10,13.00
2015,07,26,04,11,12.90
2015,07,26,04,12,13.00
2015,07,26,04,13,13.00
2015,07,26,04,14,13.00
2015,07,26,04,15,13.00
2015,07,26,04,16,13.00
2015,07,26,04,17,13.00
2015,07,26,04,18,13.00
2015,07,26,04,19,13.00
2015,07,26,04,20,12.90
2015,07,26,04,21,12.90
2015,07,26,04,22,13.00
2015,07,26,04,23,13.00
2015,07,26,04,24,13.00
2015,07,26,04,25,12.90
2015,07,26,04,26,12.90
2015,07,26,04,27,12.90
2015,07,26,04,28,12.90
2015,07,26,04,29,12.90
2015,07,26,04,30,12.90
2015,07,26,04,31,12.90
2015,07,26,04,32,12.90
2015,07,26,04,33,12.90
2015,07,26,04,34,12.90
2015,07,26,04,35,12.90
2015,07,26,04,36,12.90
2015,07,26,04,37,12.90
2015,07,26,04,38,12.90
2015,07,26,04,39,12.90
2015,07,26,04,40,12.90
2015,07,26,04,41,12.90
2015,07,26,04,42,12.90
2015,07,26,04,43,12.90
2015,07,26,04,44,12.90
2015,07,26,04,45,13.00
2015,07,26,04,46,13.00
2015,07,26,04,47,13.00
2015,07,26,04,48,13.00
2015,07,26,04,49,13.00
2015,07,26,04,50,13.00
2015,07,26,04,51,13.00
2015,07,26,04,52,13.00
2015,07,26,04,53,13.00
2015,07,26,04,54,13.00
2015,07,26,04,55,13.00
2015,07,26,04,56,13.00
2015,07,26,04,57,13.00
2015,07,26,04,58,13.00
2015,07,26,04,59,12.90
2015,07,26,05,00,12.90
2015,07,26,05,01,12.90
2015,07,26,05,02,12.90
2015,07,26,05,03,13.00
2015,07,26,05,04,12.90
2015,07,26,05,05,12.90
2015,07,26,05,06,12.90
2015,07,26,05,07,12.90
2015,07,26,05,08,12.90
2015,07,26,05,09,12.90
2015,07,26,05,10,12.90
2015,07,26,05,11,12.90
2015,07,26,05,12,12.90
2015,07,26,05,13,12.90
2015,07,26,05,14,12.90
2015,07,26,05,15,12.90
2015,07,26,05,16,12.90
2015,07,26,05,17,12.90
2015,07,26,05,18,12.90
2015,07,26,05,19,12.90
2015,07,26,05,20,12.90
2015,07,26,05,21,12.90
2015,07,26,05,22,12.90
2015,07,26,05,23,12.90
2015,07,26,05,24,12.90
2015,07,26,05,25,12.90
2015,07,26,05,26,12.90
2015,07,26,05,27,12.90
2015,07,26,05,28,12.90
2015,07,26,05,29,12.90
2015,07,26,05,30,12.80
2015,07,26,05,31,12.80
2015,07,26,05,32,12.80
2015,07,26,05,33,12.80
2015,07,26,05,34,12.80
2015,07,26,05,35,12.80
2015,07,26,05,36,12.80
2015,07,26,05,37,12.80
2015,07,26,05,38,12.80
2015,07,26,05,39,12.80
2015,07,26,05,40,12.80
2015,07,26,05,41,12.80
2015,07,26,05,42,12.80
2015,07,26,05,43,12.80
2015,07,26,05,44,12.80
2015,07,26,05,45,12.80
2015,07,26,05,46,12.80
2015,07,26,05,47,12.80
2015,07,26,05,48,12.80
2015,07,26,05,49,12.80
